Location: Unspecified
(0.0000°N, 0.0000°E)
Time: 17:43:01
(UTC+00:00)

Hubble Space Telescope - Pass Details

Date: 21 October 2021
Orbit: 535 x 538 km, 28.5° (Epoch: 23 October)

Event Time Altitude Azimuth Distance (km) Brightness Sun altitude
Rises 19:53:28 0° 266° (W) 2,663 5.4 -31.6°
Reaches altitude 10° 19:56:12 10° 284° (WNW) 1,771 4.1 -32.2°
Enters shadow 19:57:12 14° 296° (WNW) 1,518 3.6 -32.5°
